JO-97
1 43803U 18099AX  24344.60702458  .00018672  00000-0  10266-2 0  9995
2 43803  97.4968  39.8833 0009729  63.7030 296.5200 15.14088910329176
Suomi 100
1 43804U 18099AY  24344.58385865  .00017114  00000-0  98001-3 0  9996
2 43804  97.5034  39.5387 0014997  62.1913 298.0835 15.12593968329138
ISAT
1 43879U 18111D   24344.71592209  .00027012  00000-0  12717-2 0  9997
2 43879  97.6056 250.4043 0013375 107.1208 253.1492 15.19430543323966
UWE-4
1 43880U 18111E   24344.46908105  .00023698  00000-0  11838-2 0  9996
2 43880  97.5992 249.6273 0016393 118.5083 241.7803 15.17354533325931
Sparrow
1 43881U 18111F   24344.48544790  .00028767  00000-0  13259-2 0  9996
2 43881  97.6173 252.4644 0009692 138.3474 221.8501 15.20187889326023
Prox-1
1 44339U 19036A   24344.60829421  .00021015  00000-0  31179-2 0  9993
2 44339  23.9969 171.5158 0007140 160.0055 200.0721 14.73548692291081
SONATE
1 44400U 19038Q   24344.24085203  .00066373  00000-0  11787-2 0  9995
2 44400  97.7132 347.9720 0010990 184.3285 175.7872 15.49915348301038
Taurus 1
1 44530U 19059C   24344.81190891  .00015721  00000-0  32083-2 0  9998
2 44530  98.5887 110.4655 0010672 234.3594 125.6612 14.60970609277350
Duchifat 3
1 44854U 19089C   24344.55023888  .00039083  00000-0  13786-2 0  9998
2 44854  36.9511  56.0771 0010744 130.7548 229.4137 15.28293870274929
TO-108
1 44881U 19093C   24344.79546125  .00002500  00000-0  30009-3 0  9995
2 44881  97.8137  58.1602 0015385 106.5990 253.6916 14.84811259269097
FloripaSat 1
1 44885U 19093G   24344.77239333  .00011654  00000-0  10778-2 0  9997
2 44885  97.8299  66.4052 0012390  93.9993 266.2643 14.94653522269552
RS-44
1 44909U 19096E   24344.47167988  .00000042  00000-0  12469-3 0  9999
2 44909  82.5215 348.2985 0217511   1.7024 358.4769 12.79736772231392
UPMSat 2
1 46276U 20061E   24344.43391079  .00045257  00000-0  91001-3 0  9994
2 46276  97.2740  49.7405 0000897 156.3409 203.7882 15.46494487237135
AmicalSat
1 46287U 20061R   24344.16748671  .00294654  00000-0  18397-2 0  9993
2 46287  97.3165  54.6105 0002733 282.5731  77.5228 15.76042039236676
SALSAT
1 46495U 20068K   24344.46367304  .00014509  00000-0  71309-3 0  9996
2 46495  97.8395 308.9688 0014867  73.8527 286.4341 15.18059135230855
IDEASSat
1 47458U 21006AX  24344.77491743  .11308816  24541-5  59030-3 0  9995
2 47458  97.2702  49.5935 0010118 282.6552  77.3617 16.41754873215974
CubeSX-Sirius-HSE
1 47951U 21022V   24344.82926708  .00069511  00000-0  15943-2 0  9998
2 47951  97.4397 244.2785 0006856 219.6435 140.4312 15.42465199205473
CubeSX-HSE
1 47952U 21022W   24344.82447362  .00067790  00000-0  15363-2 0  9996
2 47952  97.4393 244.4202 0006971 217.6604 142.4156 15.42831023205482
KSU-Cubesat
1 47954U 21022Y   24344.69718418  .00107231  00000-0  17593-2 0  9998
2 47954  97.4397 246.9730 0005400 188.9637 171.1520 15.52042412205350
GRBAlpha
1 47959U 21022AD  24344.78269300  .00065509  00000-0  14866-2 0  9995
2 47959  97.4395 244.5454 0006849 217.4289 142.6482 15.42802127204309
Orbicraft-Zorkiy
1 47960U 21022AE  24344.79640077  .00087283  00000-0  16268-2 0  9993
2 47960  97.4433 246.8121 0005327 204.7601 155.3394 15.48497488205116
TUBIN
1 48900U 21059X   24344.78016853  .00041813  00000-0  97315-3 0  9998
2 48900  97.6616 136.1524 0005215 182.2254 177.8971 15.42168337191862
LEDSAT
1 49069U 21073D   24344.63211100  .00042166  00000-0  11250-2 0  9992
2 49069  97.4163  55.7863 0014849  22.7081 337.4817 15.37901233183289
CUTE
1 49263U 21088D   24344.18888676  .00051767  00000-0  15562-2 0  9999
2 49263  97.4759  50.3439 0011040 179.7548 180.3702 15.34167608176329
TeikyoSat 4
1 49396U 21102B   24344.68214714  .00004254  00000-0  29392-3 0  9990
2 49396  97.4370  23.5675 0013893  41.8448 318.3839 15.06180832169155
Z-Sat
1 49399U 21102E   24344.76216581  .00007711  00000-0  45499-3 0  9993
2 49399  97.4086  25.7697 0019571  18.3489 341.8443 15.11649531169483
KOSEN 1
1 49402U 21102H   24344.71030399  .00012198  00000-0  63413-3 0  9995
2 49402  97.4007  27.9372 0017160 359.2972   0.8234 15.16083932169696
HO-113
1 50466U 21131B   24344.78751071  .00001522  00000-0  49381-3 0  9990
2 50466  98.5213  69.0425 0003513 334.1397  25.9615 14.40334438155271
IRIS-A
1 51044U 22002BN  24344.44112649  .00065137  00000-0  12432-2 0  9994
2 51044  97.3606  51.8105 0004837 122.0488 238.1233 15.47906968161368
Foresail-1
1 52766U 22057AL  24344.59780997  .00063513  00000-0  12025-2 0  9993
2 52766  97.5968 116.2176 0007334 227.9197 132.1430 15.48130157141421
SNUGLITE 2
1 52899U 22065F   24344.32903694  .00003323  00000-0  66879-3 0  9991
2 52899  98.1419 122.5079 0007007 332.0512  28.0313 14.62198996129849
IO-117
1 53106U 22080B   24340.33076919 -.00000003  00000-0  00000-0 0  9992
2 53106  70.1317 133.0636 0008362  68.7653 291.3899  6.42557789 56265
FO-118
1 54684U 22167C   24344.82483542  .00131486  00000-0  18355-2 0  9995
2 54684  97.6137 136.7132 0007796 249.6594 110.3823 15.56391245111331
SSS-2B
1 56184U 23054G   24344.75883587  .00633014  16419-3  18436-2 0  9991
2 56184  97.3327 247.9805 0006373 114.6647 245.5292 15.92838887 93448
SO-120
1 56992U 23084BU  24344.58468172  .00164147  00000-0  20966-2 0  9994
2 56992  97.5359 108.9442 0003429 126.6458 233.5113 15.58694113 83168
MRC-100
1 56993U 23084BV  24344.33582391  .00388670  00000-0  25129-2 0  9993
2 56993  97.5310 110.5343 0001652 295.1314  64.9779 15.74974119 83253
UmKA 1 (RS40S)
1 57172U 23091G   24344.81190628  .00010940  00000-0  64493-3 0  9992
2 57172  97.5888  35.3063 0014249 238.2024 121.7819 15.11667336 79981
CubeBel-2 (EU11S)
1 57175U 23091K   24344.80980571  .00015699  00000-0  87027-3 0  9992
2 57175  97.5887  35.6043 0012330 249.8459 110.1446 15.13811516 80009
VERONIKA
1 58261U 23174F   24344.77756026  .00054272  00000-0  15237-2 0  9996
2 58261  97.4410  59.3606 0008809 342.7794  17.3149 15.36328464 60518
KAFASAT
1 58317U 23174BP  24344.48608797  .00096613  00000-0  19361-2 0  9994
2 58317  97.4335  60.9795 0007444 310.8709  49.1894 15.46344632 60616
ENSO
1 58470U 23185J   24344.78641593  .00043519  00000-0  12471-2 0  9992
2 58470  97.4035  50.7711 0010054  21.3747 338.7915 15.35729682 56969
EIRSAT-1
1 58472U 23185L   24344.81158693  .00050536  00000-0  13393-2 0  9993
2 58472  97.4028  51.1588 0009258  19.6685 340.4915 15.38133907 56990
SONATE-2
1 59112U 24043Q   24344.31016294  .00024653  00000-0  93966-3 0  9990
2 59112  97.4948 107.3578 0013399  43.3058 316.9231 15.26608622 42447
MO-122
1 60209U 24125G   24344.55099528  .00025630  00000-0  96868-3 0  9997
2 60209  97.2989 193.1441 0024719  67.4234 292.9617 15.26672001 24096
GRBBeta
1 60237U 24128C   24344.43985030  .00008756  00000-0  71411-3 0  9997
2 60237  61.9947 353.2830 0030685  11.8789 348.3017 14.99722098 22850
Curium One
1 60242U 24128H   24344.46905378  .00013698  00000-0  10897-2 0  9994
2 60242  61.9850 353.2458 0030924   3.9129 356.2196 15.00319004 22860
ROBUSTA-3A
1 60243U 24128J   24344.49308621  .00013883  00000-0  11137-2 0  9990
2 60243  61.9916 353.4783 0028951   1.4019 358.7146 15.00037676 22869
CatSat
1 60246U 24125J   24344.53940337  .00021021  00000-0  82699-3 0  9996
2 60246  97.2789 193.9008 0048944  22.2569 338.0778 15.24534368 22198
CosmoGirlSat
1 60953U 98067WT  24343.67168105  .13878711  12527-4  44135-3 0  9990
2 60953  51.5977 155.7050 0005998 270.7882  89.2459 16.44564326 15911
CySat-1
1 61501U 98067WZ  24344.53436851  .00321275  00000-0  20237-2 0  9991
2 61501  51.6283 161.6461 0013103 263.0345  96.9164 15.75077191  9744
AO-123
1 61781U 24199AY  24344.78534159  .00015267  00000-0  63355-3 0  9993
2 61781  97.3800 209.0305 0018930 116.5949 243.7230 15.23777712 49159
